Location: Niles Junction
(37.5763°N, 121.9714°W)
Time: 04:13:42
(UTC+00:00)

Cosmos 1980 Rocket - Pass Details

Date: 29 October 2020
Orbit: 831 x 848 km, 71.0° (Epoch: 23 November)

Event Time Altitude Azimuth Distance (km) Brightness Sun altitude
Exits shadow 12:51:31 - 339° (NNW) 2,975 4.8 -20.1°
Reaches altitude 10° 12:52:54 10° 340° (NNW) 2,443 4.4 -19.8°
Maximum altitude 12:58:31 80° 67° (ENE) 849 2.2 -18.7°
Drops below altitude 10° 13:04:06 10° 155° (SSE) 2,435 5.0 -17.6°
Sets 13:06:32 0° 156° (SSE) 3,367 5.7 -17.2°
